Location: Alsip
(41.6689°N, 87.7387°W)
Time: 14:30:18
(UTC+00:00)

Cosmos 1633 Rocket - Pass Details

Date: 14 July 2020
Orbit: 607 x 623 km, 82.5° (Epoch: 12 August)

Event Time Altitude Azimuth Distance (km) Brightness Sun altitude
Exits shadow 06:11:54 62° 17° (NNE) 699 3.4 -26.6°
Drops below altitude 10° 06:15:38 10° 9° (N) 1,998 6.7 -26.6°
Sets 06:17:52 0° 9° (N) 2,911 7.8 -26.5°
